Weather History for KGEG - October, 2012

Change the Weather History Date:

Tuesday, October 2, 2012

  Actual Average Record
Temperature  
Mean Temperature 56 °F 54 °F  
Max Temperature 71 °F 66 °F 85 °F (1963)
Min Temperature 41 °F 41 °F 27 °F (2002)
Degree Days  
Heating Degree Days 9 12  
Month to date heating degree days 12 23  
Since 1 July heating degree days 114 271  
Cooling Degree Days 0 0  
Month to date cooling degree days 0 0  
Year to date cooling degree days 535 449  
Growing Degree Days 7 (Base 50)    
Moisture  
Dew Point 30 °F    
Average Humidity 45    
Maximum Humidity 71    
Minimum Humidity 18    
Precipitation  
Precipitation 0.00 in 0.03 in 0.45 in (1938)
Month to date precipitation 0.00 0.05  
Year to date precipitation 13.96 10.83  
Snow  
Snow 0.00 in 0.00 in 0.00 in (2002)
Month to date snowfall 0.0 0.0  
Since 1 July snowfall 0.0 0.0  
Since 1 September snowfall 0.0 0.0  
Snow Depth 0.00 in    
Sea Level Pressure  
Sea Level Pressure 29.96 in    
Wind  
Wind Speed 13 mph (West)    
Max Wind Speed 29 mph    
Max Gust Speed 36 mph    
Visibility 10 miles    
Events      
T = Trace of Precipitation, MM = Missing Value Source: NWS Daily Summary

Daily Weather History Graph

Daily Weather History Graph

Search for Another Location

Airport or City:

Trip Planner

Search our weather history database for the weather conditions in past years. The results will help you decide how hot, cold, wet, or windy it might be!

Date:

Astronomy

Oct. 02, 2012 Rise Set
Actual Time 6:51 AM PDT 6:26 PM PDT
Civil Twilight 6:20 AM PDT 6:56 PM PDT
Nautical Twilight 5:44 AM PDT 7:32 PM PDT
Astronomical Twilight 5:08 AM PDT 8:08 PM PDT
Moon 7:26 PM PDT (10/2) 9:37 AM PDT (10/2)
Length of Visible Light 12h 36m
Length of Day
11h 34m
Waning Gibbous, 93% of the Moon is Illuminated
Oct 2
Waning Gibbous
Oct 8
Last Quarter
Oct 15
New
Oct 21
First Quarter
Oct 29
Full

Hourly Weather History & Observations

Time (PDT) Temp. Windchill Dew Point Humidity Pressure Visibility Wind Dir Wind Speed Gust Speed Precip Events Conditions
12:53 AM 60.1 °F - 39.9 °F 47% 29.88 in 10.0 mi SW 11.5 mph - N/A   Scattered Clouds
1:53 AM 61.0 °F - 43.0 °F 52% 29.89 in 10.0 mi SW 10.4 mph - N/A   Clear
2:53 AM 59.0 °F - 44.1 °F 58% 29.89 in 10.0 mi WSW 13.8 mph - N/A   Partly Cloudy
3:53 AM 57.2 °F - 44.6 °F 63% 29.93 in 10.0 mi WSW 9.2 mph - N/A   Partly Cloudy
4:53 AM 53.1 °F - 42.1 °F 66% 29.90 in 10.0 mi South 4.6 mph - N/A   Partly Cloudy
5:53 AM 50.0 °F - 39.9 °F 68% 29.91 in 10.0 mi South 3.5 mph - N/A   Partly Cloudy
6:53 AM 50.0 °F - 41.0 °F 71% 29.93 in 10.0 mi SW 10.4 mph - N/A   Clear
7:53 AM 51.1 °F - 41.0 °F 68% 29.94 in 10.0 mi SSW 4.6 mph - N/A   Clear
8:53 AM 55.0 °F - 41.0 °F 59% 29.95 in 10.0 mi Variable 3.5 mph - N/A   Clear
9:53 AM 59.0 °F - 42.1 °F 53% 29.95 in 10.0 mi SW 4.6 mph - N/A   Clear
10:53 AM 63.0 °F - 39.9 °F 43% 29.94 in 10.0 mi SSW 8.1 mph - N/A   Partly Cloudy
11:53 AM 66.9 °F - 36.0 °F 32% 29.92 in 10.0 mi WSW 10.4 mph 20.7 mph N/A   Partly Cloudy
12:53 PM 69.1 °F - 30.0 °F 23% 29.90 in 10.0 mi WSW 16.1 mph 24.2 mph N/A   Partly Cloudy
1:53 PM 69.1 °F - 27.0 °F 21% 29.88 in 10.0 mi WSW 20.7 mph 26.5 mph N/A   Partly Cloudy
2:53 PM 70.0 °F - 25.0 °F 18% 29.87 in 10.0 mi West 18.4 mph 25.3 mph N/A   Partly Cloudy
3:53 PM 69.1 °F - 25.0 °F 19% 29.88 in 10.0 mi WNW 21.9 mph 29.9 mph N/A   Partly Cloudy
4:08 PM 62.6 °F - 26.6 °F 26% 29.92 in 10.0 mi NNW 26.5 mph 32.2 mph N/A   Clear
4:53 PM 57.0 °F - 21.0 °F 25% 29.95 in 10.0 mi North 27.6 mph 35.7 mph N/A   Partly Cloudy
5:53 PM 54.0 °F - 14.0 °F 21% 30.00 in 10.0 mi North 21.9 mph 31.1 mph N/A   Partly Cloudy
6:53 PM 50.0 °F - 12.9 °F 23% 30.03 in 10.0 mi North 24.2 mph 32.2 mph N/A   Scattered Clouds
7:53 PM 46.9 °F - 12.9 °F 25% 30.07 in 10.0 mi North 18.4 mph 25.3 mph N/A   Partly Cloudy
8:53 PM 46.9 °F - 14.0 °F 27% 30.10 in 10.0 mi North 15.0 mph - N/A   Clear
9:53 PM 46.0 °F 40.2 °F 14.0 °F 28% 30.12 in 10.0 mi NW 12.7 mph - N/A   Clear
10:53 PM 43.0 °F 38.2 °F 15.1 °F 32% 30.14 in 10.0 mi NW 8.1 mph - N/A   Clear
11:53 PM 43.0 °F 38.2 °F 16.0 °F 34% 30.17 in 10.0 mi WNW 8.1 mph - N/A   Clear